Time,TemperatureF,DewpointF,PressureIn,WindDirection,WindDirectionDegrees,WindSpeedMPH,WindSpeedGustMPH,Humidity,HourlyPrecipIn,Conditions,Clouds,dailyrainin,SoftwareType,DateUTC
2013-06-23 00:04:00,73.0,68.0,30.15,NNE,30,0.0,0.0,84,0.00,,,0.01,weatherlink.com 1.10,2013-06-23 04:04:00,
2013-06-23 00:20:00,72.4,68.0,30.15,NNE,30,0.0,0.0,85,0.00,,,0.01,weatherlink.com 1.10,2013-06-23 04:20:00,
2013-06-23 00:34:00,71.9,68.0,30.16,NNE,30,0.0,0.0,87,0.00,,,0.00,weatherlink.com 1.10,2013-06-23 04:34:00,
2013-06-23 00:49:00,71.5,68.0,30.15,NNE,30,0.0,0.0,88,0.01,,,0.01,weatherlink.com 1.10,2013-06-23 04:49:00,
2013-06-23 01:04:00,71.2,68.0,30.16,NNE,30,0.0,0.0,90,0.01,,,0.01,weatherlink.com 1.10,2013-06-23 05:04:00,
2013-06-23 01:19:00,71.1,68.0,30.15,NNE,30,0.0,0.0,90,0.01,,,0.01,weatherlink.com 1.10,2013-06-23 05:19:00,
2013-06-23 01:34:00,70.9,68.0,30.14,NNE,30,0.0,0.0,90,0.01,,,0.01,weatherlink.com 1.10,2013-06-23 05:34:00,
2013-06-23 01:49:00,70.6,68.0,30.14,NNE,30,0.0,0.0,90,0.00,,,0.01,weatherlink.com 1.10,2013-06-23 05:49:00,
2013-06-23 02:04:00,70.2,68.0,30.14,NNE,30,0.0,0.0,91,0.00,,,0.01,weatherlink.com 1.10,2013-06-23 06:04:00,
2013-06-23 02:19:00,69.8,67.0,30.14,NNE,30,0.0,0.0,92,0.00,,,0.01,weatherlink.com 1.10,2013-06-23 06:19:00,
2013-06-23 02:34:00,69.4,67.0,30.14,NNE,30,0.0,0.0,92,0.00,,,0.01,weatherlink.com 1.10,2013-06-23 06:34:00,
2013-06-23 02:49:00,69.2,67.0,30.14,NNE,30,0.0,0.0,93,0.00,,,0.01,weatherlink.com 1.10,2013-06-23 06:49:00,
2013-06-23 03:04:00,68.8,67.0,30.14,NNE,30,0.0,0.0,93,0.00,,,0.01,weatherlink.com 1.10,2013-06-23 07:04:00,
2013-06-23 03:19:00,68.6,67.0,30.13,NNE,30,0.0,0.0,94,0.00,,,0.01,weatherlink.com 1.10,2013-06-23 07:19:00,
2013-06-23 03:34:00,68.3,66.0,30.13,NNE,30,0.0,0.0,93,0.00,,,0.01,weatherlink.com 1.10,2013-06-23 07:34:00,
2013-06-23 03:49:00,68.1,66.0,30.13,NNE,30,0.0,0.0,94,0.00,,,0.01,weatherlink.com 1.10,2013-06-23 07:49:00,
2013-06-23 04:04:00,68.0,67.0,30.13,NNE,30,0.0,0.0,95,0.00,,,0.01,weatherlink.com 1.10,2013-06-23 08:04:00,
2013-06-23 04:19:00,68.1,67.0,30.12,NNE,30,0.0,0.0,95,0.00,,,0.01,weatherlink.com 1.10,2013-06-23 08:19:00,
2013-06-23 04:34:00,68.2,67.0,30.12,NNE,30,0.0,0.0,96,0.00,,,0.01,weatherlink.com 1.10,2013-06-23 08:34:00,
2013-06-23 04:49:00,68.2,67.0,30.12,NNE,30,0.0,0.0,96,0.00,,,0.01,weatherlink.com 1.10,2013-06-23 08:49:00,
2013-06-23 05:04:00,68.0,67.0,30.13,NNE,30,0.0,0.0,95,0.00,,,0.01,weatherlink.com 1.10,2013-06-23 09:04:00,
2013-06-23 05:19:00,67.7,66.0,30.13,NNE,30,0.0,0.0,95,0.00,,,0.01,weatherlink.com 1.10,2013-06-23 09:19:00,
2013-06-23 05:34:00,67.4,66.0,30.13,NNE,30,0.0,0.0,95,0.00,,,0.01,weatherlink.com 1.10,2013-06-23 09:34:00,
2013-06-23 05:49:00,67.4,66.0,30.14,NNE,30,0.0,0.0,96,0.00,,,0.01,weatherlink.com 1.10,2013-06-23 09:49:00,
2013-06-23 06:04:00,67.3,66.0,30.14,NNE,30,0.0,0.0,96,0.00,,,0.01,weatherlink.com 1.10,2013-06-23 10:04:00,
2013-06-23 06:19:00,67.2,66.0,30.15,NNE,30,0.0,0.0,96,0.00,,,0.01,weatherlink.com 1.10,2013-06-23 10:19:00,
2013-06-23 06:34:00,67.4,67.0,30.16,NNE,30,0.0,0.0,97,0.00,,,0.01,weatherlink.com 1.10,2013-06-23 10:34:00,
2013-06-23 06:49:00,68.1,68.0,30.16,NNE,30,0.0,0.0,98,0.00,,,0.01,weatherlink.com 1.10,2013-06-23 10:49:00,
2013-06-23 07:04:00,68.7,68.0,30.17,WNW,299,0.0,1.0,98,0.00,,,0.01,weatherlink.com 1.10,2013-06-23 11:04:00,
2013-06-23 07:20:00,69.1,69.0,30.17,WNW,298,0.0,1.0,98,0.00,,,0.01,weatherlink.com 1.10,2013-06-23 11:20:00,
2013-06-23 07:35:00,69.3,69.0,30.18,WNW,297,0.0,1.0,97,0.00,,,0.01,weatherlink.com 1.10,2013-06-23 11:35:00,
2013-06-23 07:50:00,69.4,69.0,30.18,WNW,297,0.0,2.0,97,0.00,,,0.01,weatherlink.com 1.10,2013-06-23 11:50:00,
2013-06-23 08:05:00,69.7,69.0,30.18,WNW,295,0.0,2.0,97,0.00,,,0.01,weatherlink.com 1.10,2013-06-23 12:05:00,
2013-06-23 08:20:00,70.5,70.0,30.18,West,281,0.0,3.0,98,0.00,,,0.01,weatherlink.com 1.10,2013-06-23 12:20:00,
2013-06-23 08:35:00,70.9,70.0,30.19,West,259,0.0,2.0,96,0.00,,,0.01,weatherlink.com 1.10,2013-06-23 12:35:00,
2013-06-23 08:50:00,71.7,70.0,30.19,West,274,3.0,4.0,94,0.00,,,0.01,weatherlink.com 1.10,2013-06-23 12:50:00,
2013-06-23 09:05:00,71.9,70.0,30.20,West,274,0.0,3.0,93,0.00,,,0.01,weatherlink.com 1.10,2013-06-23 13:05:00,
2013-06-23 09:20:00,72.4,70.0,30.20,WSW,257,0.0,2.0,93,0.00,,,0.01,weatherlink.com 1.10,2013-06-23 13:20:00,
2013-06-23 09:35:00,73.1,71.0,30.20,SSW,211,0.0,2.0,92,0.00,,,0.01,weatherlink.com 1.10,2013-06-23 13:35:00,
2013-06-23 09:50:00,73.8,70.0,30.21,West,263,0.0,3.0,89,0.00,,,0.01,weatherlink.com 1.10,2013-06-23 13:50:00,
2013-06-23 10:05:00,74.8,71.0,30.20,West,259,0.0,2.0,87,0.00,,,0.01,weatherlink.com 1.10,2013-06-23 14:05:00,
2013-06-23 10:20:00,75.9,72.0,30.20,SW,228,0.0,2.0,86,0.00,,,0.01,weatherlink.com 1.10,2013-06-23 14:20:00,
2013-06-23 10:35:00,77.2,72.0,30.20,WNW,286,0.0,2.0,83,0.00,,,0.01,weatherlink.com 1.10,2013-06-23 14:35:00,
2013-06-23 10:50:00,78.6,72.0,30.20,WSW,240,0.0,3.0,80,0.00,,,0.01,weatherlink.com 1.10,2013-06-23 14:50:00,
2013-06-23 11:05:00,79.6,73.0,30.19,SSW,205,0.0,5.0,79,0.00,,,0.01,weatherlink.com 1.10,2013-06-23 15:05:00,
2013-06-23 11:20:00,79.1,72.0,30.20,WSW,257,0.0,3.0,78,0.00,,,0.01,weatherlink.com 1.10,2013-06-23 15:20:00,
2013-06-23 11:35:00,78.5,73.0,30.20,SSE,151,1.0,3.0,83,0.00,,,0.01,weatherlink.com 1.10,2013-06-23 15:35:00,
2013-06-23 11:50:00,77.4,74.0,30.20,SSE,162,0.0,1.0,88,0.00,,,0.01,weatherlink.com 1.10,2013-06-23 15:50:00,
2013-06-23 12:05:00,77.1,74.0,30.19,SSW,200,0.0,1.0,90,0.00,,,0.01,weatherlink.com 1.10,2013-06-23 16:05:00,
2013-06-23 12:20:00,78.2,73.0,30.19,WSW,240,0.0,2.0,83,0.00,,,0.01,weatherlink.com 1.10,2013-06-23 16:20:00,
2013-06-23 12:35:00,79.7,73.0,30.18,WNW,298,1.0,3.0,79,0.00,,,0.01,weatherlink.com 1.10,2013-06-23 16:35:00,
2013-06-23 12:50:00,80.2,71.0,30.18,WSW,256,0.0,1.0,74,0.00,,,0.01,weatherlink.com 1.10,2013-06-23 16:50:00,
2013-06-23 13:05:00,81.8,71.0,30.17,WSW,246,0.0,3.0,70,0.00,,,0.01,weatherlink.com 1.10,2013-06-23 17:05:00,
2013-06-23 13:20:00,82.0,72.0,30.17,WSW,245,0.0,4.0,72,0.00,,,0.01,weatherlink.com 1.10,2013-06-23 17:20:00,
2013-06-23 13:35:00,83.8,72.0,30.16,NW,307,1.0,3.0,68,0.00,,,0.01,weatherlink.com 1.10,2013-06-23 17:35:00,
2013-06-23 13:51:00,84.9,72.0,30.15,West,274,1.0,5.0,66,0.00,,,0.01,weatherlink.com 1.10,2013-06-23 17:51:00,
2013-06-23 14:06:00,86.4,73.0,30.14,NE,49,0.0,2.0,64,0.00,,,0.01,weatherlink.com 1.10,2013-06-23 18:06:00,
2013-06-23 14:21:00,87.5,71.0,30.14,WNW,285,0.0,5.0,59,0.00,,,0.01,weatherlink.com 1.10,2013-06-23 18:21:00,
2013-06-23 14:36:00,86.8,73.0,30.13,ESE,118,0.0,3.0,63,0.00,,,0.01,weatherlink.com 1.10,2013-06-23 18:36:00,
2013-06-23 14:51:00,87.3,70.0,30.13,North,2,1.0,3.0,57,0.00,,,0.01,weatherlink.com 1.10,2013-06-23 18:51:00,
2013-06-23 15:06:00,86.5,71.0,30.12,NE,35,0.0,4.0,60,0.00,,,0.01,weatherlink.com 1.10,2013-06-23 19:06:00,
2013-06-23 15:21:00,84.7,71.0,30.12,NNW,347,0.0,3.0,63,0.00,,,0.01,weatherlink.com 1.10,2013-06-23 19:21:00,
2013-06-23 15:36:00,84.1,72.0,30.11,NE,34,0.0,1.0,66,0.00,,,0.01,weatherlink.com 1.10,2013-06-23 19:36:00,
2013-06-23 15:51:00,85.0,71.0,30.11,NNE,18,0.0,2.0,64,0.00,,,0.01,weatherlink.com 1.10,2013-06-23 19:51:00,
2013-06-23 16:06:00,84.7,71.0,30.11,East,87,0.0,5.0,63,0.00,,,0.01,weatherlink.com 1.10,2013-06-23 20:06:00,
2013-06-23 16:21:00,84.9,72.0,30.11,NE,37,0.0,2.0,65,0.00,,,0.01,weatherlink.com 1.10,2013-06-23 20:21:00,
2013-06-23 16:36:00,84.6,71.0,30.11,North,3,0.0,4.0,63,0.00,,,0.01,weatherlink.com 1.10,2013-06-23 20:36:00,
2013-06-23 16:51:00,86.8,72.0,30.11,SE,139,0.0,4.0,62,0.00,,,0.01,weatherlink.com 1.10,2013-06-23 20:51:00,
2013-06-23 17:06:00,85.1,72.0,30.10,ENE,57,0.0,4.0,64,0.00,,,0.01,weatherlink.com 1.10,2013-06-23 21:06:00,
2013-06-23 17:21:00,85.4,72.0,30.10,East,101,0.0,2.0,65,0.00,,,0.01,weatherlink.com 1.10,2013-06-23 21:21:00,
2013-06-23 17:36:00,86.7,72.0,30.09,SE,127,0.0,3.0,62,0.00,,,0.01,weatherlink.com 1.10,2013-06-23 21:36:00,
2013-06-23 17:51:00,87.0,71.0,30.10,SE,124,3.0,6.0,60,0.00,,,0.01,weatherlink.com 1.10,2013-06-23 21:51:00,
2013-06-23 18:06:00,87.1,71.0,30.09,East,88,0.0,3.0,60,0.00,,,0.01,weatherlink.com 1.10,2013-06-23 22:06:00,
2013-06-23 18:21:00,86.8,70.0,30.08,ENE,63,1.0,4.0,58,0.00,,,0.01,weatherlink.com 1.10,2013-06-23 22:21:00,
2013-06-23 18:36:00,86.5,70.0,30.07,East,98,0.0,3.0,59,0.00,,,0.01,weatherlink.com 1.10,2013-06-23 22:36:00,
2013-06-23 18:51:00,86.4,71.0,30.10,NE,49,1.0,9.0,61,0.00,,,0.01,weatherlink.com 1.10,2013-06-23 22:51:00,
2013-06-23 19:06:00,81.8,71.0,30.12,North,360,2.0,7.0,70,0.00,,,0.01,weatherlink.com 1.10,2013-06-23 23:06:00,
2013-06-23 19:21:00,77.9,72.0,30.12,ENE,77,0.0,5.0,82,0.00,,,0.01,weatherlink.com 1.10,2013-06-23 23:21:00,
2013-06-23 19:36:00,75.5,71.0,30.12,NE,37,0.0,2.0,86,0.00,,,0.01,weatherlink.com 1.10,2013-06-23 23:36:00,
2013-06-23 19:51:00,74.0,69.0,30.11,ENE,60,0.0,2.0,84,0.01,,,0.02,weatherlink.com 1.10,2013-06-23 23:51:00,
2013-06-23 20:06:00,72.7,69.0,30.12,NW,304,0.0,2.0,87,0.01,,,0.02,weatherlink.com 1.10,2013-06-24 00:06:00,
2013-06-23 20:21:00,71.5,69.0,30.13,NNE,27,0.0,3.0,90,0.01,,,0.02,weatherlink.com 1.10,2013-06-24 00:21:00,
2013-06-23 20:36:00,71.1,68.0,30.13,NNE,13,0.0,1.0,91,0.01,,,0.02,weatherlink.com 1.10,2013-06-24 00:36:00,
2013-06-23 20:51:00,70.5,68.0,30.13,West,264,0.0,3.0,92,0.00,,,0.02,weatherlink.com 1.10,2013-06-24 00:51:00,
2013-06-23 21:06:00,70.3,68.0,30.14,West,264,0.0,1.0,93,0.00,,,0.02,weatherlink.com 1.10,2013-06-24 01:06:00,
2013-06-23 21:21:00,70.2,69.0,30.15,WSW,256,0.0,1.0,94,0.00,,,0.02,weatherlink.com 1.10,2013-06-24 01:21:00,
2013-06-23 21:36:00,70.1,69.0,30.14,WSW,256,0.0,0.0,95,0.00,,,0.02,weatherlink.com 1.10,2013-06-24 01:36:00,
2013-06-23 21:51:00,70.1,69.0,30.15,WSW,256,0.0,1.0,95,0.00,,,0.02,weatherlink.com 1.10,2013-06-24 01:51:00,
2013-06-23 22:06:00,70.2,69.0,30.16,WSW,256,0.0,0.0,96,0.00,,,0.02,weatherlink.com 1.10,2013-06-24 02:06:00,
2013-06-23 22:21:00,70.3,69.0,30.16,WSW,256,0.0,1.0,96,0.00,,,0.02,weatherlink.com 1.10,2013-06-24 02:21:00,
2013-06-23 22:36:00,70.3,69.0,30.16,WSW,256,0.0,0.0,96,0.00,,,0.02,weatherlink.com 1.10,2013-06-24 02:36:00,
2013-06-23 22:51:00,70.2,69.0,30.16,WSW,256,0.0,0.0,96,0.00,,,0.02,weatherlink.com 1.10,2013-06-24 02:51:00,
2013-06-23 23:06:00,70.1,69.0,30.17,WSW,256,0.0,0.0,96,0.00,,,0.02,weatherlink.com 1.10,2013-06-24 03:06:00,
2013-06-23 23:21:00,70.1,69.0,30.17,WSW,256,0.0,0.0,96,0.00,,,0.02,weatherlink.com 1.10,2013-06-24 03:21:00,
2013-06-23 23:36:00,69.9,69.0,30.18,WSW,256,0.0,0.0,96,0.00,,,0.02,weatherlink.com 1.10,2013-06-24 03:36:00,
2013-06-23 23:51:00,69.7,69.0,30.19,WSW,256,0.0,0.0,96,0.00,,,0.02,weatherlink.com 1.10,2013-06-24 03:51:00,